Regional Weather Roundup
Issued by NWS

Home | Current Version | Previous Version | Graphics & Text | Print | Product List | Glossary On
Versions: 1 2 3 4 5 6 7 8 9 10 11 12 13 14 15 16 17 18 19 20 21 22 23 24 25 26 27 28 29 30 31 32 33 34 35 36 37 38 39 40 41 42 43 44 45 46 47 48 49 50
000
ASUS43 KBIS 221620
RWRND

NORTH DAKOTA REGIONAL WEATHER ROUNDUP
NATIONAL WEATHER SERVICE BISMARCK ND
1100 AM CDT TUE JUL 22 2014

NOTE: "FAIR" INDICATES FEW OR NO CLOUDS BELOW 12,000 FEET WITH NO
SIGNIFICANT WEATHER AND/OR OBSTRUCTIONS TO VISIBILITY.


NDZ001>003-009>011-017-221700-
NORTHWEST NORTH DAKOTA

CITY           SKY/WX    TMP DP  RH WIND       PRES   REMARKS
WILLISTON      SUNNY     75  62  64 CALM      30.17S
MINOT          CLOUDY    70  60  70 VRB3      30.18R
MINOT AFB      MOSUNNY   69  64  84 NE3       30.18R
$$

NDZ018>021-031>035-040>046-221700-
SOUTHWEST NORTH DAKOTA

CITY           SKY/WX    TMP DP  RH WIND       PRES   REMARKS
BISMARCK       MOSUNNY   70  62  76 E6        30.20R
DICKINSON      MOSUNNY   70  63  78 E3        30.20S
GARRISON         N/A     72  63  73 CALM      30.19R
HETTINGER ARPT SUNNY     73  61  65 VRB6      30.22R
$$

NDZ004>008-012>016-024-026-027-054-221700-
NORTHEAST NORTH DAKOTA

CITY           SKY/WX    TMP DP  RH WIND       PRES   REMARKS
GRAND FORKS    MOSUNNY   72  57  59 N12       30.12R
GRND FRKS AFB  SUNNY     72  58  61 N10       30.14R
DEVILS LAKE    SUNNY     72  55  56 NE3       30.16R
$$

NDZ022-023-025-028>030-036>039-047>053-221700-
SOUTHEAST NORTH DAKOTA

CITY           SKY/WX    TMP DP  RH WIND       PRES   REMARKS
FARGO          SUNNY     74  58  57 N12       30.11R
JAMESTOWN      SUNNY     72  59  63 N8        30.16R
$$




USA.gov is the U.S. government's official web portal to all federal, state and local government web resources and services.